SWIFT

Last updated on Sun Jun 21 2026 00:02:59 GMT+0000 (Coordinated Universal Time)

1 28485U 04047A 26171.30342133 .00046405 00000+0 38117-3 0 9999 2 28485 20.5515 160.8559 0001492 338.7604 21.2780 15.68583947187358
UTC large
Height (km)
Speed (km/s)
/
Latitude / Longitude
Inclination (degrees)
Orbital Period (minutes)
Azimuth
Elevation
Range (km)
Doppler Factor

Next 0 passes for location: London (51.5072 / 0.1276)

No passes found over London.
SWIFT